[[{"header":{"parameterUnit":"m.s-1","parameterCategory":1,"la1":30.2991,"la2":30.254,"lo1":-89.0895,"lo2":-89.0444,"dy":0.0017,"dx":0.0017,"nx":28,"ny":28,"refTime":"2025-01-09T09:00:00:Z","depth":0,"parameterNumber":2,"parameterNumberName":"U-component_of_WINDS"},"data":[0,0,0,0,0,0,0,0,0,0,0,0,0,0,0,0,0,0,0,0,0,0,0,0,0,0,0,0,0,0,0,0,0,0,0,0,0,0,0,0,0,0,0,0,0,0,0,0,0,0,0,0,0,0,0,0,0,0,7.0038,7.004,0,7.0232,7.0235,7.0237,7.0197,7.0193,7.019,7.0186,7.0385,7.0394,7.0402,0,0,0,0,0,0,0,0,0,0,0,0,0,6.9634,6.9642,7.0038,7.004,7.0043,7.0232,7.0235,7.0237,7.0197,7.0193,7.0189,7.0185,7.0383,7.0393,7.0403,0,0,0,0,0,0,0,0,0,0,0,0,0,6.9817,6.9644,7.0038,7.0046,7.0048,7.0232,7.0235,7.0238,7.0198,7.0193,7.0188,7.0183,7.0379,7.0392,7.0405,7.0592,0,0,7.0444,7.045,0,0,0,0,0,0,0,0,6.9807,6.9832,7.0042,7.0046,7.0049,7.0185,7.0165,7.0357,7.02,7.0141,7.0186,7.018,7.0323,7.034,7.0388,7.0601,7.0609,7.0445,7.0453,7.0459,7.0462,0,0,0,0,0,0,0,6.9794,6.9823,7.0115,7.0045,7.0049,7.004,7.006,7.0201,7.026,7.0146,7.0144,7.0167,7.0324,7.0376,7.0393,7.0612,7.0445,7.0456,7.0464,7.0469,7.0991,7.0997,0,0,0,0,0,0,6.9778,6.9813,7.0109,7.0121,6.9912,7.0052,7.0074,7.0147,7.0258,7.027,7.0172,7.0165,7.0357,7.0378,7.04,7.0628,7.0459,7.0471,7.0478,7.0985,7.0992,7.0999,0,0,0,0,0,0,6.977,6.9805,7.0101,6.9966,7.0003,7.0065,7.0146,7.0153,7.0205,7.0278,7.0288,7.0214,7.0353,7.0381,7.0545,7.0634,7.0476,7.0488,7.0978,7.0987,7.0996,7.1084,0,0,0,0,0,0,6.9758,6.9802,6.9873,6.9968,7.0011,7.0243,7.0152,7.0161,7.0228,7.0221,7.032,7.0332,7.0351,7.0526,7.0558,7.0649,7.0498,7.097,7.0982,7.0993,7.1074,7.1095,7.1114,0,0,0,0,0,6.9744,6.989,6.9877,6.9913,7.0101,7.0248,7.0272,7.0292,7.0235,7.0308,7.0355,7.0328,7.0619,7.0543,7.0578,7.0675,7.0964,7.0979,7.0992,7.1065,7.1091,7.1114,0,0,0,0,0,0,6.9803,6.9903,6.9889,7.007,7.0151,7.0241,7.0332,7.0319,7.0417,7.0406,7.0426,7.0449,7.0616,7.0661,7.0575,7.0863,7.0784,7.0805,7.0827,7.0853,7.0873,7.0858,7.0509,0,0,0,0,0,6.9838,6.9948,7.0029,7.0181,7.0222,7.0271,7.0335,7.0344,7.0428,7.0462,7.052,7.0603,7.0714,7.0786,7.0891,7.108,7.1102,7.1165,7.1185,7.1201,7.1219,7.1325,7.1354,7.1044,7.1044,7.1043,0,0,6.9909,6.9977,7.0046,7.0195,7.0258,7.0373,7.03,7.0424,7.0509,7.0481,7.0639,7.0685,7.0779,7.0957,7.1038,7.1,7.131,7.1218,7.1231,7.124,7.1342,7.1371,7.1397,7.1053,7.1051,7.105,0,0,7.0099,7.0161,7.0295,7.0361,7.0458,7.049,7.0522,7.0615,7.0645,7.0804,7.0786,7.0888,7.1077,7.1146,7.1205,7.1424,7.1404,7.1457,7.1562,7.1665,7.169,7.1712,7.1791,7.1819,7.1475,7.1476,7.1476,0,7.0176,7.0348,7.0366,7.0493,7.056,7.054,7.0677,7.074,7.0867,7.0914,7.087,7.1108,7.117,7.1364,7.1418,7.1466,7.1505,7.1446,7.1685,7.1707,7.1727,7.1803,7.1833,7.1482,7.1481,7.148,7.148,0,7.0439,7.0558,7.0655,7.0779,7.0857,7.0988,7.1028,7.1104,7.1107,7.1143,7.1307,7.1381,7.1501,7.1548,7.1551,7.1744,7.1718,7.1679,7.16,7.1763,7.1834,7.1864,7.149,7.1488,7.1486,7.1485,0,0,7.067,7.0804,7.0839,7.0896,7.1003,7.1097,7.1228,7.1346,7.1413,7.1501,7.1613,7.1774,7.174,7.1808,7.1818,7.1909,7.2079,7.1859,7.1862,7.1899,7.2299,7.2328,7.2361,7.2067,7.2072,7.2077,7.2291,0,7.0871,7.1102,7.1123,7.1331,7.1443,7.1427,7.1542,7.162,7.1659,7.176,7.1802,7.1917,7.1862,7.1903,7.1991,7.204,7.216,7.2024,7.2172,7.2177,7.2149,7.2398,7.2429,7.2628,7.2319,7.2324,7.2327,0,7.1135,7.1233,7.1452,7.1545,7.1593,7.1696,7.1807,7.1904,7.1993,7.2015,7.2092,7.2091,7.2228,7.2143,7.2332,7.224,7.2302,7.2335,7.2343,7.2358,7.2262,7.2421,7.2691,7.2722,7.2372,7.2368,7.2365,0,7.1284,7.147,7.1626,7.1675,7.1787,7.186,7.191,7.1994,7.2065,7.2163,7.2209,7.2322,7.2383,7.2471,7.2501,7.2436,7.269,7.2607,7.2712,7.2712,7.2767,7.2763,7.3052,7.2805,7.2805,7.2804,7.2804,0,7.1506,7.1641,7.1694,7.179,7.1942,7.1966,7.2115,7.2162,7.2237,7.2343,7.2335,7.2434,7.2468,7.2573,7.2598,7.2752,7.2779,7.2801,7.2807,7.2803,7.28,7.2844,7.2831,7.2812,7.281,7.2809,7.2807,0,7.1698,7.1738,7.1908,7.2001,7.2027,7.2135,7.2215,7.2309,7.2346,7.2479,7.2512,7.2571,7.2695,7.2734,7.2883,7.2899,7.308,7.3072,7.305,7.3051,7.3154,7.3144,7.3482,7.3528,7.325,7.3253,7.3255,0,7.1837,7.1941,7.2046,7.2116,7.2169,7.2282,7.2355,7.2383,7.2459,7.257,7.2651,7.2773,7.2873,7.3072,7.3128,7.3243,7.3238,7.3349,7.3255,7.3249,7.3242,7.3235,7.3247,7.3366,7.3369,7.3371,7.3373,0,7.2081,7.2096,7.2201,7.2314,7.2401,7.2491,7.2578,7.2636,7.2677,7.2763,7.289,7.2967,7.3121,7.3243,7.336,7.3412,7.3401,7.3402,7.3433,7.3431,7.3414,7.3426,7.3099,7.3395,7.3392,7.3391,7.339,7.3389,7.2252,7.2344,7.2433,7.255,7.2619,7.2701,7.2794,7.2843,7.2949,7.3076,7.3086,7.3224,7.3313,7.3469,7.3528,7.3636,7.3605,7.3649,7.366,7.3671,7.368,7.3396,7.3657,7.3657,7.3656,7.3656,7.3656,0,7.2496,7.2553,7.2661,7.2783,7.2877,7.2857,7.2953,7.3032,7.3154,7.3237,7.3336,7.3483,7.3602,7.3669,7.3788,7.3862,7.386,7.3893,7.3888,7.3901,7.37,7.3662,7.3893,7.3893,7.3893,7.3893,7.3893,7.3893,7.2635,7.279,7.2817,7.3007,7.3063,7.3198,7.3255,7.3331,7.3398,7.3562,7.3661,7.3704,7.3782,7.3907,7.4016,7.4033,7.4077,7.4114,7.4127,7.3939,7.3915,7.3891,7.3856,7.4123,7.4124,7.4319,7.4321,7.4322]},{"header":{"parameterUnit":"m.s-1","parameterCategory":1,"la1":30.2991,"la2":30.254,"lo1":-89.0895,"lo2":-89.0444,"dy":0.0017,"dx":0.0017,"nx":28,"ny":28,"refTime":"2025-01-09T09:00:00:Z","depth":0,"parameterNumber":3,"parameterNumberName":"V-component_of_WINDS"},"data":[0,0,0,0,0,0,0,0,0,0,0,0,0,0,0,0,0,0,0,0,0,0,0,0,0,0,0,0,0,0,0,0,0,0,0,0,0,0,0,0,0,0,0,0,0,0,0,0,0,0,0,0,0,0,0,0,0,0,-3.9946,-3.9946,0,-3.9941,-3.9941,-3.9941,-3.9894,-3.9893,-3.9892,-3.9891,-3.9886,-3.9887,-3.9888,0,0,0,0,0,0,0,0,0,0,0,0,0,-3.9915,-3.9916,-3.9946,-3.9946,-3.9946,-3.9941,-3.9941,-3.9941,-3.9894,-3.9893,-3.9892,-3.989,-3.9886,-3.9887,-3.9888,0,0,0,0,0,0,0,0,0,0,0,0,0,-3.9921,-3.9916,-3.9946,-3.9922,-3.992,-3.9941,-3.9941,-3.9941,-3.9895,-3.9893,-3.9891,-3.989,-3.9885,-3.9887,-3.9888,-3.9932,0,0,-3.9893,-3.9893,0,0,0,0,0,0,0,0,-3.9921,-3.9923,-3.9926,-3.9924,-3.9921,-3.9916,-3.9928,-3.9938,-3.9895,-3.9904,-3.9891,-3.9889,-3.9898,-3.9898,-3.9901,-3.9932,-3.9932,-3.9893,-3.9894,-3.9894,-3.9895,0,0,0,0,0,0,0,-3.9921,-3.9923,-3.9944,-3.9926,-3.9923,-3.9912,-3.9911,-3.993,-3.9911,-3.9903,-3.99,-3.99,-3.9896,-3.99,-3.99,-3.9932,-3.9893,-3.9894,-3.9895,-3.9895,-3.9998,-4.0,0,0,0,0,0,0,-3.9924,-3.9922,-3.9944,-3.9944,-3.9917,-3.9914,-3.9912,-3.992,-3.991,-3.9907,-3.9901,-3.9898,-3.9898,-3.9899,-3.99,-3.995,-3.9894,-3.9896,-3.9896,-3.9996,-3.9999,-4.0001,0,0,0,0,0,0,-3.9923,-3.9926,-3.9944,-3.9932,-3.9934,-3.9916,-3.9925,-3.9921,-3.9924,-3.9909,-3.9905,-3.9908,-3.9897,-3.9898,-3.9924,-3.9949,-3.9896,-3.9898,-3.9994,-3.9997,-4.0,-4.0052,0,0,0,0,0,0,-3.9922,-3.9926,-3.9942,-3.9933,-3.9934,-3.9969,-3.9926,-3.9922,-3.9926,-3.9922,-3.9915,-3.9912,-3.9895,-3.9923,-3.9926,-3.9951,-3.9899,-3.9992,-3.9995,-3.9999,-4.0047,-4.0056,-4.0063,0,0,0,0,0,-3.9922,-3.9957,-3.9943,-3.9946,-3.9954,-3.997,-3.9971,-3.9951,-3.9929,-3.9945,-3.9935,-3.9912,-3.9947,-3.9926,-3.9929,-3.9954,-3.999,-3.9994,-3.9998,-4.0044,-4.0054,-4.0063,0,0,0,0,0,0,-3.997,-3.9956,-3.994,-3.9974,-3.9974,-3.9962,-3.9982,-3.9963,-3.9969,-3.9964,-3.9939,-3.9938,-3.9968,-3.9964,-3.9941,-3.9996,-3.9964,-3.9969,-3.9998,-4.0007,-4.0015,-4.0015,-3.99,0,0,0,0,0,-3.9985,-3.9999,-3.9985,-4.0017,-4.0017,-4.0,-4.0006,-3.9991,-3.999,-3.9989,-3.9982,-3.9981,-3.9992,-4.0,-4.0009,-4.0047,-4.0045,-4.0066,-4.0074,-4.008,-4.0085,-4.0104,-4.0114,-4.0014,-4.0014,-4.0014,0,0,-4.0016,-4.0009,-4.0019,-4.0026,-4.0024,-4.0039,-4.0,-4.0017,-4.0028,-3.9992,-4.0016,-4.0011,-4.0009,-4.0041,-4.0055,-4.0039,-4.0112,-4.0086,-4.0091,-4.0092,-4.011,-4.0119,-4.0127,-4.0017,-4.0017,-4.0016,0,0,-4.0078,-4.0075,-4.0101,-4.0099,-4.0097,-4.0085,-4.0091,-4.0083,-4.0078,-4.0102,-4.0075,-4.0088,-4.0107,-4.0106,-4.0109,-4.0172,-4.0151,-4.0176,-4.0216,-4.0235,-4.0243,-4.025,-4.0272,-4.028,-4.0181,-4.0181,-4.0181,0,-4.0116,-4.0138,-4.0116,-4.0135,-4.0139,-4.0107,-4.0132,-4.0132,-4.0133,-4.0136,-4.0118,-4.0141,-4.0138,-4.017,-4.0185,-4.0188,-4.0194,-4.0176,-4.0244,-4.025,-4.0256,-4.0277,-4.0285,-4.0184,-4.0183,-4.0183,-4.0183,0,-4.0184,-4.02,-4.022,-4.0222,-4.0228,-4.025,-4.0232,-4.0241,-4.0226,-4.0216,-4.0241,-4.0236,-4.0243,-4.025,-4.0235,-4.028,-4.0269,-4.0248,-4.0215,-4.0269,-4.0288,-4.0296,-4.0188,-4.0187,-4.0186,-4.0185,0,0,-4.0277,-4.0266,-4.0274,-4.0274,-4.0269,-4.0281,-4.0302,-4.0309,-4.0317,-4.0319,-4.0335,-4.0352,-4.0332,-4.0335,-4.032,-4.0338,-4.0387,-4.0314,-4.0313,-4.0327,-4.0436,-4.0451,-4.0461,-4.0374,-4.0375,-4.0376,-4.0436,0,-4.0337,-4.0372,-4.0353,-4.039,-4.0404,-4.0374,-4.0392,-4.0391,-4.0383,-4.0394,-4.0385,-4.0397,-4.037,-4.0371,-4.0387,-4.0378,-4.0409,-4.0374,-4.0389,-4.0389,-4.0389,-4.0471,-4.0487,-4.0543,-4.0443,-4.0444,-4.0445,0,-4.0411,-4.0416,-4.0454,-4.0447,-4.0452,-4.0468,-4.0473,-4.0484,-4.0482,-4.0475,-4.0479,-4.046,-4.048,-4.0448,-4.0475,-4.0452,-4.0457,-4.0454,-4.0455,-4.0455,-4.042,-4.0472,-4.0561,-4.0569,-4.0457,-4.0456,-4.0455,0,-4.0474,-4.049,-4.0515,-4.0516,-4.0508,-4.0521,-4.0518,-4.0514,-4.052,-4.0525,-4.0528,-4.0535,-4.0539,-4.0545,-4.0528,-4.0507,-4.0558,-4.0524,-4.0552,-4.0552,-4.0563,-4.0562,-4.0653,-4.0568,-4.0568,-4.0568,-4.0568,0,-4.0542,-4.0567,-4.0543,-4.0558,-4.0585,-4.0564,-4.0591,-4.0585,-4.0583,-4.0596,-4.0571,-4.0585,-4.0563,-4.0574,-4.0561,-4.0586,-4.0588,-4.0582,-4.0579,-4.0584,-4.0585,-4.0586,-4.0582,-4.057,-4.057,-4.0569,-4.0569,0,-4.0617,-4.0602,-4.0627,-4.0617,-4.0615,-4.0636,-4.0627,-4.0641,-4.0631,-4.0649,-4.0652,-4.0637,-4.0649,-4.0633,-4.0644,-4.0635,-4.0668,-4.0659,-4.0669,-4.0666,-4.0694,-4.0691,-4.0788,-4.0799,-4.0708,-4.0709,-4.071,0,-4.0661,-4.0679,-4.0671,-4.0678,-4.0677,-4.0689,-4.0695,-4.0675,-4.0681,-4.0681,-4.0695,-4.0705,-4.0712,-4.0732,-4.0722,-4.073,-4.0721,-4.0754,-4.0722,-4.0727,-4.072,-4.0719,-4.0721,-4.076,-4.0762,-4.0762,-4.0763,0,-4.074,-4.0732,-4.0741,-4.0747,-4.0754,-4.0758,-4.076,-4.0767,-4.0747,-4.0755,-4.0767,-4.0772,-4.0783,-4.0793,-4.0799,-4.0796,-4.0776,-4.0774,-4.078,-4.0786,-4.079,-4.0787,-4.0686,-4.0771,-4.077,-4.077,-4.0769,-4.0769,-4.08,-4.0815,-4.0812,-4.0822,-4.0822,-4.0824,-4.0836,-4.0828,-4.0838,-4.0845,-4.0833,-4.0848,-4.0846,-4.0851,-4.085,-4.0862,-4.0847,-4.0857,-4.086,-4.0862,-4.0866,-4.0789,-4.0863,-4.0863,-4.0863,-4.0862,-4.0862,0,-4.0878,-4.0875,-4.0884,-4.0888,-4.0896,-4.0877,-4.0878,-4.0886,-4.09,-4.09,-4.0907,-4.092,-4.093,-4.0921,-4.0929,-4.094,-4.0931,-4.0943,-4.0941,-4.0941,-4.0879,-4.0872,-4.095,-4.095,-4.095,-4.095,-4.095,-4.095,-4.092,-4.0943,-4.0935,-4.0958,-4.0954,-4.0968,-4.097,-4.0973,-4.0972,-4.0989,-4.0996,-4.099,-4.0987,-4.0994,-4.1002,-4.0999,-4.1003,-4.1018,-4.1012,-4.0954,-4.0945,-4.0937,-4.093,-4.1019,-4.1019,-4.1073,-4.1073,-4.1074]}]]